Location: El Mouella
(16.4949°N, 9.1594°W)
Time: 20:34:52
(UTC+00:00)

STARLINK-60 - Pass Details

Date: 04 October 2020
Orbit: 350 x 360 km, 53.0° (Epoch: 20 October)

Event Time Altitude Azimuth Distance (km) Brightness Sun altitude
Rises 20:08:10 0° 239° (WSW) 2,164 7.5 -26.0°
Reaches altitude 10° 20:10:28 10° 256° (WSW) 1,316 6.5 -26.6°
Enters shadow 20:11:33 17° 274° (W) 1,003 5.8 -26.8°
